Weather History for KCRG - August, 2014

Change the Weather History Date:

Tuesday, August 12, 2014

  Actual Average Record
Temperature  
Mean Temperature 82 °F -  
Max Temperature 86 °F 87 °F 99 °F (2011)
Min Temperature 78 °F 71 °F 71 °F (2002)
Cooling Degree Days 17    
Growing Degree Days 32 (Base 50)    
Moisture  
Dew Point 74 °F    
Average Humidity 77    
Maximum Humidity 90    
Minimum Humidity 67    
Precipitation  
Precipitation 0.00 in - - ()
Sea Level Pressure  
Sea Level Pressure 29.94 in    
Wind  
Wind Speed 9 mph (SW)    
Max Wind Speed 17 mph    
Max Gust Speed -    
Visibility 10 miles    
Events      
Averages and records for this station are not official NWS values.
T = Trace of Precipitation, MM = Missing Value Source: NWS Daily Summary

Daily Weather History Graph

Daily Weather History Graph

Search for Another Location

Airport or City:

Trip Planner

Search our weather history database for the weather conditions in past years. The results will help you decide how hot, cold, wet, or windy it might be!

Date:

Astronomy

Aug. 12, 2014 Rise Set
Actual Time 6:51 AM EDT 8:10 PM EDT
Civil Twilight 6:25 AM EDT 8:35 PM EDT
Nautical Twilight 5:55 AM EDT 9:06 PM EDT
Astronomical Twilight 5:24 AM EDT 9:37 PM EDT
Moon 9:32 PM EDT (8/12) 8:54 AM EDT (8/12)
Length of Visible Light 14h 10m
Length of Day
13h 19m
Waning Gibbous, 95% of the Moon is Illuminated
Aug 12
Waning Gibbous
Aug 17
Last Quarter
Aug 25
New
Sep 2
First Quarter
Sep 8
Full

Hourly Weather History & Observations

Time (EDT) Temp. Heat Index Dew Point Humidity Pressure Visibility Wind Dir Wind Speed Gust Speed Precip Events Conditions
12:53 AM 78.1 °F - 73.9 °F 87% 29.96 in 10.0 mi WSW 5.8 mph - N/A   Clear
1:53 AM 79.0 °F - 75.0 °F 88% 29.96 in 10.0 mi WSW 6.9 mph - N/A   Clear
2:53 AM 78.1 °F - 75.0 °F 90% 29.95 in 10.0 mi WSW 5.8 mph - N/A   Clear
3:53 AM 79.0 °F - 73.9 °F 84% 29.94 in 10.0 mi WSW 6.9 mph - N/A   Mostly Cloudy
5:53 AM 79.0 °F - 75.0 °F 88% 29.93 in 10.0 mi WSW 6.9 mph - N/A   Scattered Clouds
6:53 AM 78.1 °F - 73.9 °F 87% 29.93 in 10.0 mi WSW 4.6 mph - N/A   Clear
8:53 AM 82.0 °F 88.6 °F 75.0 °F 79% 29.95 in 10.0 mi SW 12.7 mph - N/A   Clear
9:53 AM 84.0 °F 91.2 °F 73.9 °F 72% 29.96 in 10.0 mi SW 12.7 mph - N/A   Scattered Clouds
11:53 AM 86.0 °F 93.8 °F 73.9 °F 67% 29.96 in 10.0 mi SSW 10.4 mph - N/A   Partly Cloudy
1:53 PM 84.9 °F 91.4 °F 73.0 °F 67% 29.95 in 10.0 mi SW 15.0 mph - N/A   Mostly Cloudy
2:53 PM 82.9 °F 88.8 °F 73.0 °F 72% 29.94 in 10.0 mi SW 16.1 mph - 0.00 in   Mostly Cloudy
3:00 PM 84.0 °F 90.2 °F 73.0 °F 69% 29.93 in 10.0 mi SW 15.0 mph - N/A   Mostly Cloudy
3:53 PM 84.9 °F 93.3 °F 75.0 °F 72% 29.90 in 10.0 mi SW 17.3 mph - N/A   Partly Cloudy
4:53 PM 86.0 °F 95.1 °F 75.0 °F 70% 29.90 in 10.0 mi SW 16.1 mph - N/A   Scattered Clouds
5:53 PM 86.0 °F 93.8 °F 73.9 °F 67% 29.91 in 10.0 mi WSW 12.7 mph - N/A   Scattered Clouds
6:53 PM 84.0 °F 90.2 °F 73.0 °F 69% 29.91 in 10.0 mi WSW 12.7 mph - N/A   Clear
7:53 PM 84.0 °F 91.2 °F 73.9 °F 72% 29.91 in 10.0 mi SW 9.2 mph - N/A   Clear
8:53 PM 82.9 °F 89.4 °F 73.9 °F 74% 29.92 in 10.0 mi SW 9.2 mph - N/A   Scattered Clouds
9:53 PM 82.0 °F 87.9 °F 73.9 °F 76% 29.94 in 10.0 mi SW 13.8 mph - N/A   Clear
10:53 PM 82.0 °F 87.9 °F 73.9 °F 76% 29.95 in 10.0 mi SW 9.2 mph - N/A   Clear
11:53 PM 81.0 °F 86.7 °F 75.0 °F 82% 29.96 in 10.0 mi WSW 8.1 mph - N/A   Clear